Tracking 29892 objects as of 21-Nov-2024
HD Live streaming from Space Station
objects crossing your sky now

SL-16 DEB

Track SL-16 DEB now!
10-day predictions


NORAD ID: 39860
Int'l Code: 1992-093LN
Perigee: 778.5 km
Apogee: 818.8 km
Inclination: 70.8 °
Period: 100.7 minutes
Semi major axis: 7169 km
RCS: Unknown
Launch date: December 25, 1992
Source: Commonwealth of Independent States (former USSR) (CIS)
Launch site: TYURATAM MISSILE AND SPACE COMPLEX (TTMTR)

Note: This is SATELLITE DEBRIS
Your satellite tracking list
Your tracking list is empty




NASA's NSSDC Master Catalog

Two Line Element Set (TLE):
1 39860U 92093LN  24318.88434582  .00002742  00000-0  10753-2 0  9992
2 39860  70.7874 179.8385 0028105  76.3740 284.0516 14.30074292118733
Source of the keplerian elements: AFSPC